Date String (YYYY-MM-DD hh:mm:ss) UTC,Instrument flags,absolute air pressure of the measurement (hPa),sample flow rate (lpm),inlet stack bypass flow (lpm),air temperature of the measurement (°C),ambient temperature measured by the external sensor (°C),aerosol sample conditioner tube jacket temperature (°C),OPC LED temperature (°C),internal box temperature (°C),relative humidity of the measurement (%),span deviation,mass concentration of particles derived from Lorenz-Mie calculation of OPC scattering (μg/m³),mass concentration of particles derived from Lorenz-Mie calculation of OPC scattering (μg/m³),mass concentration of particles derived from Lorenz-Mie calculation of OPC scattering (μg/m³)
DateTimeUTC,F1_M11,P_M11,Q1_M11,Q2_M11,T1_M11,T2_M11,T3_M11,T4_M11,T5_M11,U1_M11,ZSPAN_M11,X0_M11,X2_M11,X1_M11
2024-02-11 09:00:00,SystemResetWarning,0828.7,5.00,000.00,018.3,017.8,000.0,026.8,020.0,17.0,0000.0,0005.18,0004.63,0004.58
2024-02-11 09:01:00,SystemResetWarning,0828.7,5.01,000.00,018.3,017.7,000.0,026.9,020.0,17.0,0000.0,0005.16,0004.64,0004.60
2024-02-11 09:02:00,SystemResetWarning,0828.7,5.01,000.00,018.3,017.7,000.0,026.9,020.0,17.0,0000.0,0005.24,0004.68,0004.64
2024-02-11 09:03:00,SystemResetWarning,0828.8,5.00,000.00,018.3,017.7,000.0,026.9,020.0,17.0,0000.0,0005.30,0004.71,0004.66
2024-02-11 09:04:00,SystemResetWarning,0828.8,5.00,000.00,018.3,017.7,000.0,026.9,020.0,17.0,0000.0,0005.34,0004.74,0004.69
2024-02-11 09:05:00,SystemResetWarning,0828.8,4.99,000.00,018.3,017.7,000.0,026.9,020.0,17.0,0000.0,0005.44,0004.80,0004.75
2024-02-11 09:06:00,SystemResetWarning,0828.8,5.00,000.00,018.3,017.7,000.0,026.9,020.0,17.0,0000.0,0005.59,0004.87,0004.81
2024-02-11 09:07:00,SystemResetWarning,0828.8,5.00,000.00,018.3,017.7,000.0,026.8,020.0,17.0,0000.0,0005.65,0004.91,0004.84
2024-02-11 09:08:00,SystemResetWarning,0828.8,5.00,000.00,018.2,017.7,000.0,026.8,020.0,17.0,0000.0,0005.71,0004.95,0004.88
2024-02-11 09:09:00,SystemResetWarning,0828.8,5.00,000.00,018.2,017.6,000.0,026.8,020.0,17.0,0000.0,0005.76,0004.98,0004.91
2024-02-11 09:10:00,SystemResetWarning,0828.8,4.99,000.00,018.2,017.6,000.0,026.8,020.0,17.0,0000.0,0005.82,0005.02,0004.94
2024-02-11 09:11:00,SystemResetWarning,0828.8,5.00,000.00,018.2,017.6,000.0,026.8,020.0,17.0,0000.0,0005.82,0005.04,0004.96
2024-02-11 09:12:00,SystemResetWarning,0828.8,5.00,000.00,018.2,017.6,000.0,026.8,020.0,17.0,0000.0,0005.84,0005.05,0004.97
2024-02-11 09:13:00,SystemResetWarning,0828.8,4.99,000.00,018.2,017.6,000.0,026.8,020.0,17.1,0000.0,0005.81,0005.04,0004.97
2024-02-11 09:14:00,SystemResetWarning,0828.8,5.00,000.00,018.2,017.6,000.0,026.8,020.0,17.1,0000.0,0005.82,0005.04,0004.97
2024-02-11 09:15:00,SystemResetWarning,0828.8,5.00,000.00,018.2,017.6,000.0,026.8,020.0,17.1,0000.0,0005.82,0005.04,0004.97
2024-02-11 09:16:00,SystemResetWarning,0828.8,5.01,000.00,018.2,017.6,000.0,026.8,020.0,17.0,0000.0,0005.75,0005.01,0004.95
2024-02-11 09:17:00,SystemResetWarning,0828.8,5.00,000.00,018.2,017.6,000.0,026.8,020.0,17.0,0000.0,0005.66,0004.97,0004.91
2024-02-11 09:18:00,SystemResetWarning,0828.8,5.00,000.00,018.2,017.6,000.0,026.8,020.0,17.1,0000.0,0005.64,0004.95,0004.90
2024-02-11 09:19:00,SystemResetWarning,0828.8,5.00,000.00,018.2,017.6,000.0,026.8,020.0,17.1,0000.0,0005.61,0004.93,0004.88
2024-02-11 09:20:00,SystemResetWarning,0828.7,5.00,000.00,018.2,017.7,000.0,026.9,020.1,17.1,0000.0,0005.58,0004.91,0004.86
2024-02-11 09:21:00,SystemResetWarning,0828.9,5.02,000.00,018.3,018.4,000.0,027.0,020.5,17.0,0000.0,0005.58,0004.90,0004.85
2024-02-11 09:22:00,SystemResetWarning,0828.9,5.00,000.00,018.6,018.9,000.0,027.0,020.8,16.8,0000.0,0005.62,0004.89,0004.84
2024-02-11 09:23:00,SystemResetWarning,0828.8,4.99,000.00,018.6,018.8,000.0,026.9,020.7,16.7,0000.0,0005.60,0004.88,0004.83
2024-02-11 09:24:00,SystemResetWarning,0828.8,5.00,000.00,018.6,018.7,000.0,026.9,020.5,16.7,0000.0,0005.58,0004.88,0004.83
2024-02-11 09:25:00,SystemResetWarning,0828.8,5.01,000.00,018.6,018.5,000.0,026.9,020.4,16.7,0000.0,0005.59,0004.89,0004.83
2024-02-11 09:26:00,SystemResetWarning,0828.7,5.01,000.00,018.5,018.4,000.0,026.8,020.3,16.7,0000.0,0005.61,0004.89,0004.83
2024-02-11 09:27:00,SystemResetWarning,0828.8,5.00,000.00,018.5,018.3,000.0,026.8,020.2,16.8,0000.0,0005.61,0004.89,0004.83
2024-02-11 09:28:00,SystemResetWarning,0828.7,5.00,000.00,018.5,018.2,000.0,026.8,020.2,16.8,0000.0,0005.59,0004.88,0004.83
2024-02-11 09:29:00,SystemResetWarning,0828.7,4.99,000.00,018.5,018.1,000.0,026.8,020.2,16.8,0000.0,0005.60,0004.88,0004.83
2024-02-11 09:30:00,SystemResetWarning,0828.7,5.00,000.00,018.4,018.0,000.0,026.8,020.1,16.8,0000.0,0005.70,0004.90,0004.83
2024-02-11 09:31:00,SystemResetWarning,0828.7,5.00,000.00,018.4,018.0,000.0,026.8,020.0,16.9,0000.0,0005.72,0004.92,0004.84
2024-02-11 09:32:00,SystemResetWarning,0828.7,4.99,000.00,018.4,017.9,000.0,026.8,020.0,16.9,0000.0,0005.68,0004.92,0004.85
2024-02-11 09:33:00,SystemResetWarning,0828.7,5.00,000.00,018.3,017.8,000.0,026.8,020.0,16.9,0000.0,0005.64,0004.92,0004.86
2024-02-11 09:34:00,SystemResetWarning,0828.7,5.00,000.00,018.3,017.8,000.0,026.8,020.0,16.9,0000.0,0005.64,0004.93,0004.87
2024-02-11 09:35:00,SystemResetWarning,0828.7,5.00,000.00,018.3,017.8,000.0,026.8,020.0,17.0,0000.0,0005.64,0004.93,0004.87
2024-02-11 09:36:00,SystemResetWarning,0828.7,5.00,000.00,018.3,017.8,000.0,026.8,020.0,17.0,0000.0,0005.62,0004.92,0004.87
2024-02-11 09:37:00,SystemResetWarning,0828.7,5.00,000.00,018.3,017.8,000.0,026.8,020.0,17.0,0000.0,0005.58,0004.91,0004.87
2024-02-11 09:38:00,SystemResetWarning,0828.6,5.01,000.00,018.3,017.8,000.0,026.8,020.0,17.0,0000.0,0005.60,0004.91,0004.86
2024-02-11 09:39:00,SystemResetWarning,0828.6,5.00,000.00,018.3,017.7,000.0,026.8,020.0,17.0,0000.0,0005.59,0004.91,0004.86
2024-02-11 09:40:00,SystemResetWarning,0828.6,5.01,000.00,018.3,017.7,000.0,026.8,020.0,17.0,0000.0,0005.52,0004.89,0004.84
2024-02-11 09:41:00,SystemResetWarning,0828.6,5.00,000.00,018.2,017.7,000.0,026.8,020.0,17.1,0000.0,0005.43,0004.87,0004.83
2024-02-11 09:42:00,SystemResetWarning,0828.6,5.00,000.00,018.2,017.7,000.0,026.8,020.0,17.1,0000.0,0005.38,0004.85,0004.82
2024-02-11 09:43:00,SystemResetWarning,0828.6,5.00,000.00,018.2,017.7,000.0,026.8,020.0,17.1,0000.0,0005.38,0004.84,0004.82
2024-02-11 09:44:00,SystemResetWarning,0828.6,4.99,000.00,018.2,017.7,000.0,026.8,020.0,17.1,0000.0,0005.44,0004.85,0004.81
2024-02-11 09:45:00,SystemResetWarning,0828.6,4.99,000.00,018.2,017.7,000.0,026.8,020.0,17.1,0000.0,0005.47,0004.86,0004.82
2024-02-11 09:46:00,SystemResetWarning,0828.6,5.00,000.00,018.2,017.7,000.0,026.8,020.0,17.1,0000.0,0005.50,0004.87,0004.83
2024-02-11 09:47:00,SystemResetWarning,0828.6,5.00,000.00,018.2,017.7,000.0,026.8,020.0,17.1,0000.0,0005.54,0004.89,0004.85
2024-02-11 09:48:00,SystemResetWarning,0828.6,5.00,000.00,018.2,017.6,000.0,026.8,020.0,17.1,0000.0,0005.56,0004.91,0004.87
2024-02-11 09:49:00,SystemResetWarning,0828.6,5.01,000.00,018.2,017.6,000.0,026.8,020.0,17.1,0000.0,0005.60,0004.92,0004.88
2024-02-11 09:50:00,SystemResetWarning,0828.6,5.00,000.00,018.2,017.6,000.0,026.8,020.0,17.1,0000.0,0005.62,0004.94,0004.90
2024-02-11 09:51:00,SystemResetWarning,0828.6,5.00,000.00,018.2,017.6,000.0,026.8,020.0,17.2,0000.0,0005.70,0004.97,0004.92
2024-02-11 09:52:00,SystemResetWarning,0828.6,5.00,000.00,018.2,017.6,000.0,026.8,020.0,17.2,0000.0,0005.80,0005.01,0004.95
2024-02-11 09:53:00,SystemResetWarning,0828.6,5.00,000.00,018.2,017.7,000.0,026.9,020.1,17.2,0000.0,0005.90,0005.04,0004.98
2024-02-11 09:54:00,SystemResetWarning,0828.6,5.01,000.00,018.4,018.4,000.0,027.0,020.5,17.1,0000.0,0006.35,0005.06,0005.00
2024-02-11 09:55:00,SystemResetWarning,0828.6,4.99,000.00,018.6,019.0,000.0,027.0,020.8,16.9,0000.0,0006.63,0005.08,0005.01
2024-02-11 09:56:00,SystemResetWarning,0828.6,4.99,000.00,018.6,018.9,000.0,027.0,020.7,16.8,0000.0,0006.65,0005.10,0005.03
2024-02-11 09:57:00,SystemResetWarning,0828.5,5.00,000.00,018.6,018.7,000.0,026.9,020.6,16.8,0000.0,0006.69,0005.13,0005.06
2024-02-11 09:58:00,SystemResetWarning,0828.5,5.01,000.00,018.6,018.6,000.0,026.9,020.4,16.8,0000.0,0006.75,0005.15,0005.08
2024-02-11 09:59:00,SystemResetWarning,0828.5,5.00,000.00,018.6,018.4,000.0,026.9,020.3,16.8,0000.0,0006.87,0005.19,0005.10
